This is the latest recevied weather packets stored in our database for station/object KV4OP. If no packets are shown the sender has not sent any weather packets the latest 10 day(s).
| Time | Temp. | Humidity | Pressure | Rain* | Wind** | Luminosity | Snow |
|---|---|---|---|---|---|---|---|
| 1788116448 | 26.11° C | 76% | 1018.2 hPa | 3.81 mm | - | - | - |
| 1788116138 | 25.56° C | 76% | 1018.1 hPa | 3.81 mm | - | - | - |
| 1788115838 | 26.11° C | 76% | 1018.2 hPa | 3.81 mm | - | - | - |
| 1788115538 | 25.56° C | 76% | 1018.1 hPa | 3.81 mm | - | - | - |
| 1788115247 | 25.56° C | 76% | 1018.2 hPa | 3.81 mm | - | - | - |
| 1788114938 | 25.56° C | 75% | 1018.3 hPa | 3.56 mm | - | - | - |
| 1788114638 | 25.56° C | 75% | 1018.3 hPa | 3.3 mm | - | - | - |
| 1788114339 | 25.56° C | 74% | 1018.3 hPa | 2.79 mm | - | - | - |
| 1788114048 | 26.67° C | 70% | 1018.1 hPa | 0.51 mm | - | - | - |
| 1788113739 | 27.78° C | 65% | 1018.3 hPa | 0 mm | - | - | - |
| 1788113439 | 29.44° C | 62% | 1018.2 hPa | 0 mm | - | - | - |
| 1788113139 | 31.67° C | 58% | 1018.1 hPa | 0 mm | - | - | - |
| 1788112847 | 31.67° C | 58% | 1017.9 hPa | 0 mm | - | - | - |
| 1788112539 | 32.22° C | 59% | 1017.9 hPa | 0 mm | - | - | - |
| 1788112239 | 33.33° C | 57% | 1017.9 hPa | 0 mm | - | - | - |
| 1788111939 | 33.33° C | 56% | 1017.8 hPa | 0 mm | - | - | - |
| 1788111648 | 32.78° C | 57% | 1017.9 hPa | 0 mm | - | - | - |
| 1788111339 | 32.22° C | 59% | 1017.9 hPa | 0 mm | - | - | - |
| 1788111039 | 32.22° C | 57% | 1017.9 hPa | 0 mm | - | - | - |
| 1788110739 | 32.78° C | 57% | 1018.1 hPa | 0 mm | - | - | - |
| 1788110450 | 32.78° C | 58% | 1018.1 hPa | 0 mm | - | - | - |
| 1788110139 | 31.67° C | 59% | 1018.2 hPa | 0 mm | - | - | - |
| 1788109839 | 32.22° C | 57% | 1018.2 hPa | 0 mm | - | - | - |
| 1788109539 | 32.22° C | 57% | 1018.4 hPa | 0 mm | - | - | - |
| 1788109248 | 32.22° C | 58% | 1018.6 hPa | 0 mm | - | - | - |
* Rain latest hour (hover to see other rain measurements)
** Current wind speed in m/s (hover to see current wind gust speed)